Tracking 25648 objects as of 16-May-2022
HD Live streaming from Space Station
objects crossing your sky now

FREGAT R/B

Track FREGAT R/B now!


NORAD ID: 37848
Int'l Code: 2011-060C
Perigee: 23,612.8 km
Apogee: 23,654.1 km
Inclination: 57.1 °
Period: 862.1 minutes
Semi major axis: 30004 km
RCS: 2.697 m2 (large)
Launch date: October 21, 2011
Source: Commonwealth of Independent States (former USSR) (CIS)
Launch site: FRENCH GUIANA (FRGUI)

Note: This is a ROCKET BODY
aabbcc
Your satellite tracking list
Your tracking list is empty




NASA's NSSDC Master Catalog

Two Line Element Set (TLE):
1 37848U 11060C   22133.51981644 -.00000079  00000-0  00000-0 0  9994
2 37848  57.1085  26.9057 0006881 331.9143 212.0772  1.67041689 64287
Source of the keplerian elements: AFSPC